Location: Tucson
(32.2217°N, 110.9265°W)
Time: 19:27:01
(UTC-07:00)

N. Korean satellite - Pass Details

Date: 02 October 2021
Orbit: 450 x 495 km, 97.3° (Epoch: 22 October)

Event Time Altitude Azimuth Distance (km) Brightness Sun altitude
Rises 05:50:03 0° 5° (N) 2,553 10.3 -6.9°
Reaches altitude 10° 05:52:08 10° 360° (N) 1,676 9.3 -6.4°
Maximum altitude 05:55:38 50° 284° (WNW) 628 6.8 -5.7°
Drops below altitude 10° 05:59:09 10° 208° (SSW) 1,680 9.0 -4.9°
Sets 06:01:16 0° 203° (SSW) 2,561 10.0 -4.5°
